QBITO (42728 NORAD) Tracking and Keplerian Element Data

This shows tracking and keplerian element data for the satellite.

Feedback or suggestion? Click here.




ElementValue
Catalog42728
NameQBITO
Epoch Orbit8428
Epoch Day319.90660217
Epoch Year2018
RAAN294.389
Inclination51.6326
Eccentricity0.0005068
Argument of Perigee84.7727
Mean Anonmoly275.3855
Mean Motion15.84025161
Decay Rate0.00073339
L11 42728U 98067MH 18319.90660217 .00073339 00000-0 32024-3 0 9995
L22 42728 51.6326 294.3890 0005068 84.7727 275.3855 15.84025161 84287

Live tracking and technical data element details for QBITO (NORAD 42728). QBITO can be tracked NOW for your location showing map with azimuth and elevation plus other details from your city location.

Track the satellite on the map from your city or location and see movement details for azimuth, elevation, latitude, longitude, range, height, and movement on the map or in text.







IsCatalogInMostPopularTable: catalog: 42728, numindb: 144
Update: records affected: 1



GetName: 42728 QBITO

Hit Count: updated at: Fri, 16 Nov 2018 06:12:00 GMT